Tracking 28126 objects as of 2-Oct-2023
HD Live streaming from Space Station
objects crossing your sky now

SL-14 R/B

Track SL-14 R/B now!
10-day predictions


NORAD ID: 22287
Int'l Code: 1992-094B
Perigee: 623.1 km
Apogee: 657.9 km
Inclination: 82.5 °
Period: 97.4 minutes
Semi major axis: 7011 km
RCS: 4.3914 m2 (large)
Launch date: December 25, 1992
Source: Commonwealth of Independent States (former USSR) (CIS)
Launch site: PLESETSK MISSILE AND SPACE COMPLEX (PKMTR)

Note: This is a ROCKET BODY
Your satellite tracking list
Your tracking list is empty




NASA's NSSDC Master Catalog

Two Line Element Set (TLE):
1 22287U 92094B   23274.89082931  .00000640  00000-0  83682-4 0  9994
2 22287  82.5209 100.7428 0024837  15.4442 344.7523 14.78715571636969
Source of the keplerian elements: AFSPC